This demonstration page uses our WeatherBlox Daily Observations layout. Learn more.

38.89511, -77.03637

Hourly Observations for September 18, 2017

Temp ( °F °C ) Dew Point ( °F °C ) Humidity (%) Winds ( mph kmh ) Pressure ( in mb ) Visibility ( mi km ) Precip ( " mm )
12:52 am 00:52 Mostly Clear 72 22.2 69 20.6 91 91 ENE 5 7 30.09 1019 10 16.09344 0 0
1:52 am 01:52 Clear 72 22.2 69 20.6 91 91 E 5 7 30.09 1019 10 16.09344 0 0
2:52 am 02:52 Cloudy 71 21.7 69 20.6 94 94 NE 6 9 30.06 1018 10 16.09344 0 0
3:52 am 03:52 Cloudy 71 21.7 69 20.6 94 94 ENE 5 7 30.06 1018 10 16.09344 0 0
4:52 am 04:52 Cloudy 71 21.7 69 20.6 94 94 N 3 6 30.06 1018 10 16.09344 0 0
5:06 am 05:06 Mostly Cloudy 71 21.7 69 20.6 94 94 N 5 7 30.09 1019 10 16.09344 0 0
5:52 am 05:52 Cloudy 71 21.7 69 20.6 94 94 NNE 5 7 30.06 1018 10 16.09344 0 0
6:42 am 06:42 Mostly Cloudy 71 21.7 69 20.6 94 94 NE 7 11 30.09 1019 10 16.09344 0 0
6:52 am 06:52 Mostly Cloudy 71 21.7 69 20.6 94 94 ENE 8 13 30.06 1018 10 16.09344 0 0
7:25 am 07:25 Partly Cloudy 71 21.7 69 20.6 94 94 NE 6 9 30.09 1019 10 16.09344 0 0
7:52 am 07:52 Partly Cloudy 72 22.2 69 20.6 91 91 NNE 8 13 30.06 1018 10 16.09344 0 0
8:05 am 08:05 Partly Cloudy 72 22.2 69 20.6 91 91 NNE 8 13 30.09 1019 10 16.09344 0 0
8:45 am 08:45 Mostly Cloudy 72 22.2 69 20.6 91 91 NE 9 15 30.09 1019 9 14.484096 0 0
8:52 am 08:52 Mostly Cloudy 73 22.8 69 20.6 87 87 NE 9 15 30.09 1019 10 16.09344 0 0
9:20 am 09:20 Mostly Cloudy 74 23.3 69 20.6 85 85 NNE 10 17 30.09 1019 10 16.09344 0 0
9:52 am 09:52 Mostly Cloudy 74 23.3 68 20 82 82 NE 10 17 30.09 1019 10 16.09344 0 0
10:52 am 10:52 Mostly Cloudy 74 23.3 67 19.4 79 79 ENE 14 22 30.06 1018 10 16.09344 0 0
11:04 am 11:04 Mostly Sunny 75 23.9 67 19.4 76 76 undefined N/A 30.09 1019 N/A 0 0
11:38 am 11:38 Cloudy 75 23.9 67 19.4 76 76 NE 13 20 30.09 1019 10 16.09344 0 0
11:52 am 11:52 Cloudy 75 23.9 67 19.4 76 76 NE 10 17 30.09 1019 10 16.09344 0 0
12:52 pm 12:52 Cloudy 76 24.4 67 19.4 74 74 NE 9 15 30.06 1018 10 16.09344 0 0
1:52 pm 13:52 Cloudy 75 23.9 68 20 79 79 ENE 12 19 30.06 1018 10 16.09344 0 0
2:52 pm 14:52 Cloudy 75 23.9 68 20 79 79 ENE 9 15 30.06 1018 10 16.09344 0 0
3:45 pm 15:45 Cloudy 75 23.9 69 20.6 82 82 ENE 10 17 30.06 1018 10 16.09344 0 0
3:52 pm 15:52 Cloudy 75 23.9 69 20.6 82 82 NE 12 19 30.03 1017 10 16.09344 0 0
4:52 pm 16:52 Mostly Cloudy 76 24.4 69 20.6 79 79 NNE 10 17 30.03 1017 10 16.09344 0 0
5:44 pm 17:44 Mostly Cloudy 76 24.4 68 20 77 77 NE 10 17 30.03 1017 10 16.09344 0 0
5:52 pm 17:52 Mostly Cloudy 77 25 69 20.6 77 77 N 10 17 30.03 1017 10 16.09344 0 0
6:13 pm 18:13 Mostly Cloudy 76 24.4 68 20 77 77 NNE 13 20 30.03 1017 10 16.09344 0 0
6:52 pm 18:52 Mostly Cloudy 74 23.3 68 20 82 82 NE 12 19 30.03 1017 10 16.09344 0 0
7:52 pm 19:52 Partly Cloudy 73 22.8 68 20 84 84 NNE 10 17 30.03 1017 10 16.09344 0 0
8:52 pm 20:52 Partly Cloudy 72 22.2 68 20 87 87 N 8 13 30.03 1017 10 16.09344 0 0
9:52 pm 21:52 Mostly Cloudy 72 22.2 68 20 87 87 NNE 10 17 30.03 1017 10 16.09344 0 0
10:52 pm 22:52 Mostly Cloudy 71 21.7 68 20 90 90 NNE 8 13 30.03 1017 10 16.09344 0 0
11:52 pm 23:52 Partly Cloudy 71 21.7 68 20 90 90 NNE 8 13 30.03 1017 10 16.09344 0 0

Powered by AerisWeather